Wind_Speed
19 20 22 23 24 25 26 27 28 29 29 30 30 31 32 33 34 36 37 38 39 41 42 43 44 44 44 45 44 43 41 39 39 39 37 35 34 32 31 29 28 27 27 28
19 20 22 22 23 23 24 26 26 27 28 29 29 30 31 33 35 36 37 39 40 41 43 44 45 46 46 46 46 46 44 44 42 41 41 39 37 35 34 32 31 30 30 30
18 19 20 20 21 22 22 23 24 25 27 28 30 31 33 33 35 36 38 39 40 41 43 44 46 47 48 48 47 46 45 45 45 44 42 41 40 39 37 36 34 33 33 32
16 17 17 18 18 19 20 21 23 25 27 28 29 32 32 33 34 35 37 38 39 40 41 42 43 44 45 45 45 46 44 43 43 43 42 41 41 39 39 38 37 36 35 34
14 14 15 16 17 19 20 22 23 24 26 27 28 30 30 30 31 33 35 36 37 37 38 38 38 39 41 41 41 42 42 41 40 40 40 40 39 39 38 38 38 38 37 35
12 13 14 15 17 18 20 20 21 23 24 24 25 26 27 27 28 29 30 32 32 33 32 31 32 33 34 35 36 36 36 37 37 37 37 38 38 36 36 36 36 36 35 35
11 13 14 15 17 17 18 20 21 22 22 22 22 23 23 23 24 25 24 24 25 25 25 25 24 24 24 26 27 28 29 29 31 32 33 34 35 34 33 33 33 33 33 32
11 12 13 14 16 16 17 18 19 20 20 19 19 19 20 21 21 20 20 19 19 18 19 18 18 18 16 16 18 20 22 22 25 26 28 29 30 30 30 30 30 30 30 30
10 11 12 14 15 15 16 17 18 17 16 16 15 16 18 19 18 18 18 17 16 14 13 12 13 11 10 10 10 12 16 17 20 21 22 22 23 25 26 27 28 28 29 30
11 12 13 14 14 15 16 17 16 15 15 15 15 16 16 16 16 16 17 16 16 14 12 12 12 10 8 7 5 7 9 10 12 15 17 17 18 20 22 23 24 26 27 28
12 13 14 15 16 16 16 16 16 15 16 16 16 16 16 15 16 16 17 17 16 15 14 13 12 11 9 7 6 5 3 3 5 8 10 12 14 15 16 18 20 21 23 24
13 14 15 15 16 16 16 16 16 16 16 16 16 16 16 16 16 17 17 18 18 17 16 15 14 13 10 9 8 7 6 4 2 2 4 6 8 10 11 12 14 16 17 18
14 15 15 16 16 17 17 17 17 17 17 18 17 17 16 16 17 17 18 19 19 19 19 17 16 15 14 13 12 11 10 9 7 6 4 2 2 3 5 7 8 9 11 12
15 16 16 17 17 18 18 17 17 18 18 18 18 18 18 17 17 17 18 19 21 21 21 20 19 18 18 18 17 16 14 13 12 11 10 8 7 6 5 5 5 6 6 7
16 16 17 17 17 18 18 18 18 18 18 18 18 18 18 18 18 18 19 20 21 22 21 21 21 21 20 19 19 19 18 17 15 14 14 13 11 10 9 8 7 7 6 6
16 16 17 17 17 18 18 18 18 19 19 18 18 18 18 19 19 19 20 20 21 22 23 22 21 21 21 20 19 19 19 18 17 16 16 15 14 13 13 11 10 9 9 8
16 17 17 17 17 17 18 18 18 18 18 18 19 19 18 18 19 19 20 20 21 22 23 23 23 23 22 22 21 21 20 19 18 18 17 16 16 15 15 14 13 12 12 11
15 17 17 17 17 17 17 17 18 18 18 18 18 18 18 18 19 19 20 21 21 21 22 22 22 22 21 21 21 21 21 21 20 19 18 18 17 17 16 15 15 14 14 14
14 15 17 17 17 17 17 17 17 17 17 17 17 18 18 18 18 18 19 20 20 20 21 21 21 21 21 21 21 21 21 22 22 21 20 20 19 19 19 18 17 17 17 16
12 13 15 16 17 17 17 16 16 16 16 16 16 16 16 16 17 17 18 18 19 19 19 20 20 20 21 21 21 21 22 22 22 22 22 22 21 21 21 21 20 20 19 19
10 11 13 14 15 16 16 15 15 15 15 14 15 15 15 15 15 16 16 17 17 17 18 18 19 19 20 20 20 20 21 21 22 22 22 22 22 22 22 22 21 21 21 21
8 9 11 12 13 14 15 14 13 13 13 13 13 13 13 13 13 14 14 15 16 16 16 17 17 17 18 18 19 19 19 20 20 21 21 21 22 22 22 22 22 22 22 22
6 7 9 10 11 11 13 13 12 11 12 12 11 11 11 11 12 12 13 14 14 15 15 15 15 16 16 17 17 18 18 19 20 20 21 21 22 22 22 23 23 23 23 23
6 6 7 8 9 9 10 11 11 10 10 10 10 10 10 10 10 10 11 12 12 13 14 14 14 14 15 15 16 17 18 18 19 20 21 21 21 21 22 22 23 23 23 23
7 7 7 7 7 7 7 8 9 9 8 8 8 9 8 8 8 8 9 10 10 11 12 13 13 13 13 14 15 15 16 17 18 19 20 21 21 21 21 22 23 23 23 24
8 8 7 7 7 6 6 6 7 7 7 6 6 6 7 7 7 7 7 8 8 9 10 11 11 12 13 13 13 14 15 16 17 18 19 20 21 21 21 21 22 22 23 23
Wind_Direction
269 275 280 284 286 287 288 288 287 287 286 285 284 283 283 282 281 278 276 274 273 270 268 267 267 265 264 262 261 260 259 258 257 257 256 255 256 256 256 258 259 257 261 262
276 282 286 290 292 292 291 289 289 288 288 287 286 285 285 285 283 281 278 276 273 272 270 269 267 266 265 264 264 263 260 259 258 258 257 256 255 257 257 259 260 261 263 264
283 289 293 294 296 296 295 295 294 294 294 292 290 289 288 287 286 284 281 279 277 275 273 272 271 270 268 266 264 263 261 259 258 257 256 256 256 257 258 258 261 263 263 264
292 297 298 300 302 303 303 302 299 298 298 296 295 293 291 291 289 287 285 283 281 279 279 276 274 272 270 268 266 264 261 259 257 256 256 256 256 257 258 259 261 262 263 265
299 302 305 307 307 306 305 305 303 302 301 300 299 296 295 293 293 291 289 287 286 284 283 279 277 274 271 268 266 266 263 259 257 256 256 255 256 257 257 258 259 261 263 264
309 311 313 313 312 309 309 308 307 306 305 305 305 302 301 300 299 296 294 292 290 289 287 283 281 278 274 271 267 265 264 261 258 258 257 256 255 256 256 257 257 258 261 263
323 322 321 320 319 318 317 316 315 314 313 312 311 310 311 311 310 308 305 302 300 296 293 292 291 290 283 275 268 263 261 259 257 258 258 257 255 255 256 257 257 257 259 260
334 332 330 329 328 327 326 325 324 324 324 322 320 320 321 323 324 323 322 321 318 314 307 302 301 300 292 281 271 264 260 255 254 256 257 255 255 255 255 255 256 258 259 259
345 342 340 339 338 336 337 337 337 337 337 337 339 339 336 339 342 341 341 340 337 335 330 326 322 321 313 300 278 266 262 257 254 252 254 255 256 255 254 255 257 259 260 261
2 358 355 351 349 348 347 348 350 353 356 359 358 358 356 358 357 357 356 352 351 351 347 347 351 347 341 337 314 288 275 264 258 252 252 255 257 257 257 258 259 261 263 264
12 8 4 2 1 360 359 358 0 4 8 9 8 8 9 10 11 13 13 14 14 12 9 8 10 15 16 21 18 2 347 293 266 257 255 256 258 261 261 262 263 264 265 266
18 15 14 12 10 9 9 9 10 13 14 15 14 16 17 21 21 24 25 26 28 28 28 30 32 35 36 34 37 37 48 44 29 307 275 270 270 270 269 268 267 267 268 269
24 23 22 20 19 17 17 17 19 21 22 23 24 25 26 28 28 28 30 35 39 41 44 45 44 46 50 51 53 56 56 55 54 56 54 28 344 307 292 287 285 282 278 275
30 28 27 25 23 21 20 21 22 25 28 28 30 32 33 34 35 36 40 45 46 48 50 50 49 51 55 56 57 59 60 60 59 59 57 57 55 42 23 0 340 325 311 300
34 32 30 28 25 23 23 25 25 27 29 30 33 36 37 41 44 47 48 49 51 52 53 54 56 57 58 58 58 60 60 62 61 60 59 57 55 52 43 34 22 8 351 333
35 34 32 30 27 25 25 27 28 30 32 35 39 43 45 47 51 52 52 53 53 53 55 57 57 56 57 58 57 57 58 59 58 56 55 52 48 44 39 33 25 17 6 352
35 33 31 30 27 26 28 28 29 32 37 41 44 46 48 51 54 54 54 56 55 55 56 56 56 57 57 57 56 57 58 57 55 53 51 48 46 42 38 33 29 23 15 5
34 33 32 30 28 28 30 32 33 36 41 45 48 49 51 54 56 57 57 56 57 57 56 55 56 56 56 56 56 57 56 55 53 51 48 46 44 42 39 36 33 28 23 16
32 31 31 29 29 30 31 35 36 39 44 47 50 51 53 56 58 59 57 56 56 57 57 57 57 57 57 56 57 57 55 53 51 50 48 47 47 44 42 39 35 31 26 21
28 28 28 29 29 30 33 37 39 42 46 48 51 54 55 57 59 58 58 57 56 57 57 56 56 57 57 56 55 55 53 52 50 49 48 47 46 44 40 38 34 30 26 23
20 21 22 24 28 30 32 37 40 44 45 49 53 55 56 57 57 58 58 56 56 57 57 57 57 56 55 54 53 52 50 49 48 47 46 45 43 40 37 34 32 28 26 24
7 11 15 18 23 26 29 34 38 41 44 48 51 55 57 56 56 56 56 55 55 55 56 56 55 54 52 51 48 47 46 45 44 43 42 40 38 35 33 32 30 28 26 25
345 355 3 10 16 20 25 30 33 37 41 44 48 52 56 56 56 55 55 54 53 52 51 51 50 49 48 46 44 43 42 41 39 38 37 36 34 32 31 30 29 28 27 26
315 330 342 353 2 9 17 24 28 32 38 42 47 50 53 56 56 54 52 50 48 47 45 45 44 43 42 41 40 39 38 37 36 34 33 31 30 29 29 29 29 29 29 29
294 302 315 329 344 355 4 13 22 28 32 37 44 48 49 52 52 50 46 43 41 40 40 39 38 36 35 35 34 34 33 32 31 30 29 28 27 28 29 30 31 32 33 33
283 288 293 301 314 329 342 353 6 17 25 29 35 41 42 43 42 40 37 32 31 31 31 31 30 29 29 29 28 29 29 29 28 27 26 27 27 28 29 30 32 33 34 36
Height
5893 5893 5891 5889 5888 5886 5884 5881 5879 5876 5874 5872 5870 5868 5866 5864 5862 5860 5859 5857 5856 5855 5853 5853 5852 5852 5852 5852 5853 5854 5855 5856 5857 5858 5858 5860 5860 5861 5862 5862 5863 5864 5865 5866
5890 5888 5887 5885 5883 5881 5878 5876 5873 5870 5868 5866 5863 5861 5859 5856 5854 5851 5849 5847 5845 5844 5842 5841 5841 5840 5840 5840 5841 5842 5843 5845 5846 5848 5849 5851 5852 5853 5854 5856 5856 5857 5859 5859
5887 5885 5883 5881 5879 5876 5873 5871 5867 5864 5861 5859 5856 5854 5851 5848 5845 5842 5839 5837 5835 5833 5831 5830 5828 5827 5827 5827 5828 5829 5831 5833 5835 5837 5839 5841 5844 5845 5846 5848 5849 5850 5851 5852
5883 5881 5879 5877 5874 5871 5869 5866 5863 5859 5856 5853 5850 5846 5844 5840 5837 5833 5830 5827 5825 5822 5820 5818 5817 5816 5815 5815 5816 5817 5818 5820 5823 5826 5829 5831 5834 5836 5838 5839 5841 5842 5843 5845
5881 5878 5876 5874 5871 5868 5865 5861 5858 5854 5850 5847 5843 5840 5837 5833 5829 5826 5822 5818 5815 5812 5809 5807 5805 5804 5803 5803 5804 5805 5806 5809 5811 5815 5818 5821 5824 5827 5829 5831 5833 5834 5835 5837
5878 5876 5873 5871 5867 5864 5861 5857 5854 5850 5846 5842 5838 5835 5831 5827 5823 5819 5814 5810 5806 5803 5799 5797 5795 5793 5792 5791 5792 5794 5795 5798 5801 5804 5808 5811 5815 5818 5820 5822 5824 5826 5828 5829
5876 5874 5871 5868 5864 5861 5858 5854 5850 5846 5842 5838 5834 5830 5826 5821 5817 5812 5808 5804 5800 5796 5793 5790 5788 5785 5784 5783 5783 5784 5786 5789 5792 5795 5798 5802 5805 5809 5811 5814 5816 5818 5820 5822
5874 5872 5869 5865 5862 5859 5855 5852 5848 5843 5838 5835 5830 5826 5823 5817 5813 5808 5804 5800 5796 5792 5788 5785 5783 5780 5778 5777 5777 5778 5780 5782 5785 5788 5791 5794 5797 5800 5803 5806 5808 5810 5812 5813
5873 5871 5868 5864 5861 5857 5853 5849 5845 5841 5836 5832 5828 5824 5820 5815 5811 5806 5802 5797 5793 5789 5786 5783 5780 5777 5775 5773 5773 5774 5775 5777 5779 5782 5785 5787 5790 5792 5795 5798 5800 5802 5804 5806
5873 5871 5867 5864 5860 5856 5852 5848 5844 5840 5835 5831 5828 5823 5820 5815 5810 5806 5802 5797 5793 5789 5785 5782 5779 5776 5774 5773 5772 5772 5772 5774 5775 5777 5780 5782 5784 5786 5789 5791 5793 5795 5796 5798
5873 5871 5867 5863 5859 5855 5852 5848 5844 5840 5835 5831 5827 5826 5820 5815 5811 5807 5803 5798 5793 5789 5786 5783 5780 5777 5775 5774 5773 5772 5772 5772 5773 5775 5777 5778 5780 5782 5783 5785 5787 5788 5789 5790
5874 5871 5867 5864 5860 5856 5853 5849 5844 5841 5836 5832 5828 5827 5820 5816 5812 5808 5805 5800 5796 5792 5788 5785 5782 5780 5778 5776 5775 5774 5774 5773 5773 5774 5775 5776 5778 5779 5780 5781 5782 5783 5784 5784
5875 5872 5868 5865 5863 5858 5853 5849 5845 5841 5837 5833 5829 5828 5822 5818 5814 5811 5807 5803 5799 5795 5791 5788 5786 5783 5781 5779 5778 5777 5776 5776 5775 5775 5776 5776 5777 5777 5778 5778 5779 5779 5779 5779
5876 5872 5870 5867 5863 5858 5855 5851 5847 5843 5839 5835 5831 5828 5824 5820 5817 5814 5810 5807 5803 5799 5796 5793 5790 5788 5786 5784 5782 5781 5780 5780 5779 5779 5778 5778 5777 5777 5777 5777 5777 5777 5776 5776
5877 5874 5870 5867 5864 5860 5857 5853 5849 5845 5841 5837 5834 5830 5827 5823 5820 5817 5814 5811 5807 5804 5801 5798 5796 5793 5791 5789 5788 5786 5785 5784 5783 5782 5781 5780 5779 5779 5778 5777 5777 5776 5775 5774
5879 5876 5872 5869 5866 5862 5859 5855 5851 5847 5843 5840 5836 5833 5830 5827 5824 5821 5818 5815 5812 5809 5806 5803 5801 5799 5797 5795 5793 5791 5789 5788 5787 5786 5784 5783 5782 5780 5779 5778 5777 5775 5774 5773
5880 5878 5875 5871 5868 5865 5862 5858 5854 5850 5846 5843 5840 5837 5833 5831 5828 5825 5822 5820 5817 5814 5812 5809 5807 5804 5802 5800 5798 5796 5794 5793 5791 5789 5787 5786 5784 5783 5781 5779 5777 5775 5774 5772
5882 5879 5876 5873 5871 5867 5866 5860 5857 5853 5850 5846 5843 5840 5837 5835 5832 5830 5827 5825 5822 5820 5817 5815 5812 5810 5808 5806 5804 5801 5799 5797 5795 5793 5791 5789 5787 5785 5783 5781 5779 5777 5774 5772
5884 5882 5879 5876 5873 5870 5867 5863 5859 5856 5853 5850 5847 5844 5841 5839 5837 5834 5832 5830 5827 5825 5823 5820 5818 5816 5813 5811 5809 5807 5804 5802 5799 5797 5794 5792 5790 5788 5785 5783 5780 5778 5775 5772
5886 5884 5881 5878 5875 5872 5870 5866 5862 5860 5857 5854 5851 5848 5845 5843 5841 5840 5837 5834 5832 5830 5828 5825 5823 5821 5819 5816 5814 5812 5809 5807 5804 5801 5798 5796 5794 5791 5788 5785 5782 5779 5776 5772
5887 5885 5883 5880 5877 5874 5872 5868 5865 5864 5862 5857 5854 5852 5850 5847 5846 5844 5841 5839 5836 5834 5832 5830 5828 5826 5824 5822 5819 5817 5814 5811 5809 5806 5803 5800 5797 5795 5791 5788 5785 5781 5777 5773
5887 5886 5883 5881 5879 5878 5873 5870 5868 5866 5862 5860 5858 5855 5853 5851 5849 5847 5845 5843 5841 5839 5837 5835 5833 5830 5828 5826 5824 5821 5819 5816 5813 5810 5807 5804 5801 5798 5795 5791 5787 5783 5779 5775
5887 5886 5884 5883 5882 5878 5875 5872 5870 5867 5865 5862 5860 5858 5856 5854 5852 5850 5848 5846 5845 5843 5841 5838 5836 5834 5832 5830 5828 5825 5823 5820 5817 5814 5811 5808 5805 5801 5798 5794 5790 5785 5781 5777
5886 5885 5884 5882 5880 5878 5876 5874 5871 5869 5866 5864 5862 5860 5859 5857 5855 5853 5852 5850 5848 5846 5844 5842 5840 5838 5836 5833 5831 5829 5826 5823 5821 5818 5814 5811 5808 5804 5800 5797 5792 5788 5784 5779
5884 5883 5882 5881 5880 5878 5876 5874 5872 5870 5868 5866 5864 5862 5860 5859 5857 5856 5854 5852 5850 5849 5847 5845 5842 5840 5838 5836 5834 5832 5829 5827 5824 5821 5817 5814 5811 5807 5803 5800 5795 5791 5787 5783
5882 5882 5881 5880 5879 5878 5877 5875 5873 5871 5869 5867 5865 5863 5862 5860 5859 5857 5855 5854 5852 5850 5849 5847 5845 5843 5841 5838 5836 5834 5832 5829 5826 5824 5820 5817 5814 5810 5806 5803 5799 5795 5791 5787